TimeCDT,TemperatureF,Dew PointF,Humidity,Sea Level PressureIn,VisibilityMPH,Wind Direction,Wind SpeedMPH,Gust SpeedMPH,PrecipitationIn,Events,Conditions,WindDirDegrees,DateUTC
12:53 AM,61.0,60.1,97,29.98,10.0,SSE,8.1,-,N/A,,Partly Cloudy,150,2013-04-08 05:53:00
1:07 AM,60.8,60.8,100,29.98,10.0,SSE,8.1,-,N/A,,Mostly Cloudy,160,2013-04-08 06:07:00
1:49 AM,60.8,60.8,100,29.98,10.0,SSE,6.9,-,N/A,,Scattered Clouds,150,2013-04-08 06:49:00
1:53 AM,62.1,60.1,93,29.97,10.0,SSE,6.9,-,N/A,,Scattered Clouds,150,2013-04-08 06:53:00
2:53 AM,61.0,60.1,97,29.96,9.0,SSE,6.9,-,N/A,,Mostly Cloudy,160,2013-04-08 07:53:00
3:24 AM,59.0,59.0,100,29.97,9.0,South,4.6,-,0.01,,Mostly Cloudy,180,2013-04-08 08:24:00
3:53 AM,60.1,59.0,96,29.95,8.0,SE,4.6,-,0.01,,Partly Cloudy,140,2013-04-08 08:53:00
4:48 AM,57.2,57.2,100,29.96,2.5,Calm,Calm,-,N/A,,Mostly Cloudy,0,2013-04-08 09:48:00
4:53 AM,57.9,57.9,100,29.95,2.5,South,3.5,-,N/A,,Mostly Cloudy,170,2013-04-08 09:53:00
5:09 AM,57.2,57.2,100,29.96,4.0,Calm,Calm,-,N/A,,Overcast,0,2013-04-08 10:09:00
5:53 AM,60.1,59.0,96,29.96,1.5,SSE,3.5,-,N/A,,Overcast,150,2013-04-08 10:53:00
6:03 AM,60.8,59.0,94,29.97,0.5,SSE,3.5,-,N/A,Fog,Fog,150,2013-04-08 11:03:00
6:53 AM,60.1,60.1,100,29.97,0.8,SSE,6.9,-,N/A,,Mist,150,2013-04-08 11:53:00
7:09 AM,60.8,60.8,100,29.98,1.2,SSE,8.1,-,N/A,,Overcast,160,2013-04-08 12:09:00
7:23 AM,60.8,60.8,100,29.99,2.0,SSE,8.1,-,N/A,,Overcast,160,2013-04-08 12:23:00
7:38 AM,60.8,60.8,100,30.00,3.0,SSE,8.1,-,N/A,,Overcast,160,2013-04-08 12:38:00
7:53 AM,61.0,61.0,100,29.99,4.0,South,8.1,-,N/A,,Overcast,170,2013-04-08 12:53:00
8:50 AM,64.4,62.6,94,30.00,10.0,SSE,6.9,-,N/A,,Scattered Clouds,150,2013-04-08 13:50:00
8:53 AM,64.0,62.1,93,29.99,10.0,SSE,6.9,-,N/A,,Scattered Clouds,150,2013-04-08 13:53:00
9:53 AM,70.0,61.0,73,29.99,10.0,South,8.1,16.1,N/A,,Mostly Cloudy,180,2013-04-08 14:53:00
10:46 AM,71.6,60.8,69,30.02,10.0,South,11.5,17.3,N/A,,Overcast,170,2013-04-08 15:46:00
10:53 AM,73.0,61.0,66,30.02,10.0,South,13.8,-,N/A,,Overcast,180,2013-04-08 15:53:00
11:04 AM,73.4,60.8,65,30.03,10.0,South,11.5,-,N/A,,Overcast,170,2013-04-08 16:04:00
11:53 AM,73.9,62.1,66,30.01,10.0,SSE,11.5,-,N/A,,Mostly Cloudy,160,2013-04-08 16:53:00
12:53 PM,75.9,61.0,60,30.00,10.0,SSE,15.0,24.2,N/A,,Overcast,160,2013-04-08 17:53:00
1:53 PM,78.1,60.1,54,29.99,10.0,SSE,18.4,24.2,N/A,,Scattered Clouds,160,2013-04-08 18:53:00
2:53 PM,79.0,61.0,54,29.96,10.0,SSE,17.3,23.0,N/A,,Mostly Cloudy,160,2013-04-08 19:53:00
3:53 PM,80.1,60.1,50,29.94,10.0,South,15.0,21.9,N/A,,Mostly Cloudy,170,2013-04-08 20:53:00
4:53 PM,79.0,59.0,50,29.94,10.0,South,15.0,21.9,N/A,,Scattered Clouds,170,2013-04-08 21:53:00
5:53 PM,77.0,62.1,60,29.95,10.0,SSE,16.1,-,N/A,,Clear,160,2013-04-08 22:53:00
6:53 PM,73.9,62.1,66,29.95,10.0,SSE,13.8,-,N/A,,Clear,160,2013-04-08 23:53:00
7:53 PM,73.0,63.0,71,29.95,10.0,SE,9.2,-,N/A,,Mostly Cloudy,140,2013-04-09 00:53:00
8:53 PM,70.0,64.0,81,29.95,10.0,Variable,5.8,-,N/A,,Clear,0,2013-04-09 01:53:00
9:36 PM,69.8,64.4,83,29.95,10.0,SE,12.7,20.7,N/A,,Mostly Cloudy,140,2013-04-09 02:36:00
9:53 PM,70.0,64.9,84,29.94,10.0,SE,11.5,19.6,N/A,,Overcast,140,2013-04-09 02:53:00
10:22 PM,69.8,66.2,88,29.97,10.0,SSE,12.7,20.7,N/A,,Overcast,160,2013-04-09 03:22:00
10:53 PM,70.0,66.0,87,29.96,10.0,SE,16.1,21.9,N/A,,Overcast,140,2013-04-09 03:53:00
11:53 PM,70.0,64.9,84,29.96,10.0,SSE,11.5,20.7,N/A,,Overcast,150,2013-04-09 04:53:00